TimePST,TemperatureF,Dew PointF,Humidity,Sea Level PressureIn,VisibilityMPH,Wind Direction,Wind SpeedMPH,Gust SpeedMPH,PrecipitationIn,Events,Conditions,WindDirDegrees,DateUTC
12:53 AM,62.1,46.0,56,30.04,10.0,Calm,Calm,-,N/A,,Clear,0,2012-11-05 08:53:00
1:53 AM,62.1,43.0,50,30.04,10.0,NW,3.5,-,N/A,,Clear,310,2012-11-05 09:53:00
2:53 AM,62.1,39.9,44,30.02,10.0,NW,4.6,-,N/A,,Clear,310,2012-11-05 10:53:00
3:53 AM,63.0,39.0,41,30.02,10.0,WNW,3.5,-,N/A,,Clear,290,2012-11-05 11:53:00
4:53 AM,63.0,36.0,37,30.03,10.0,WNW,4.6,-,N/A,,Clear,290,2012-11-05 12:53:00
5:53 AM,61.0,35.1,38,30.04,10.0,NW,4.6,-,N/A,,Clear,320,2012-11-05 13:53:00
6:53 AM,62.1,36.0,38,30.04,10.0,WNW,4.6,-,N/A,,Clear,300,2012-11-05 14:53:00
7:53 AM,70.0,35.1,28,30.06,10.0,Calm,Calm,-,N/A,,Clear,0,2012-11-05 15:53:00
8:53 AM,77.0,36.0,23,30.06,10.0,NW,4.6,-,N/A,,Clear,320,2012-11-05 16:53:00
9:53 AM,84.9,34.0,16,30.06,10.0,North,3.5,-,N/A,,Clear,350,2012-11-05 17:53:00
10:53 AM,90.0,32.0,13,30.04,10.0,Calm,Calm,-,N/A,,Clear,0,2012-11-05 18:53:00
11:53 AM,91.0,37.0,15,30.01,10.0,Calm,Calm,-,N/A,,Clear,0,2012-11-05 19:53:00
12:53 PM,91.0,32.0,12,29.99,10.0,SSW,4.6,-,N/A,,Clear,210,2012-11-05 20:53:00
1:53 PM,91.9,30.0,11,29.97,10.0,SW,6.9,-,N/A,,Clear,230,2012-11-05 21:53:00
2:53 PM,91.9,30.0,11,29.96,10.0,SSW,5.8,-,N/A,,Clear,210,2012-11-05 22:53:00
3:53 PM,87.1,34.0,15,29.97,10.0,WNW,8.1,-,N/A,,Clear,290,2012-11-05 23:53:00
4:53 PM,81.0,30.0,16,29.98,10.0,WNW,10.4,-,N/A,,Clear,290,2012-11-06 00:53:00
5:53 PM,77.0,35.1,22,29.99,10.0,NNW,5.8,-,N/A,,Clear,330,2012-11-06 01:53:00
6:53 PM,75.0,37.9,26,30.00,10.0,North,4.6,-,N/A,,Clear,350,2012-11-06 02:53:00
7:53 PM,73.0,39.9,30,30.01,10.0,Calm,Calm,-,N/A,,Clear,0,2012-11-06 03:53:00
8:53 PM,70.0,41.0,35,30.02,10.0,Calm,Calm,-,N/A,,Clear,0,2012-11-06 04:53:00
9:53 PM,68.0,43.0,40,30.03,10.0,Calm,Calm,-,N/A,,Clear,0,2012-11-06 05:53:00
10:53 PM,64.0,48.9,58,30.03,10.0,Calm,Calm,-,N/A,,Clear,0,2012-11-06 06:53:00
11:53 PM,63.0,48.9,60,30.03,10.0,Calm,Calm,-,N/A,,Clear,0,2012-11-06 07:53:00